Precipitable_Water
1.13 1.16 1.18 1.14 1.13 1.09 1.01 0.93 0.90 0.93 0.91 0.89 0.83 0.81 0.84 0.88 0.87 0.89 0.97 0.97 0.96 0.95 0.93 0.94 0.96 0.95 0.95 0.96 0.98 1.00 1.02 1.06 1.13 1.14 1.14 1.15 1.15 1.12 1.12 1.13 1.08 1.07 1.10 1.11 1.10 1.02 0.98 0.94 0.94 0.96 0.99 0.95 0.94 0.94 0.91 0.88 0.90 0.93 0.98 1.02 1.04 1.10 1.12 1.13 1.10 1.10 1.19 1.34 1.34 1.27 1.33 1.46 1.49 1.58 1.47 1.45 1.61 1.83 1.87 1.83 1.77 1.71 1.70 1.73 1.80
1.16 1.20 1.17 1.17 1.16 1.14 1.08 1.04 1.01 0.99 0.97 0.95 0.90 0.86 0.88 0.90 0.96 0.96 0.94 1.02 1.03 1.03 1.04 1.02 1.02 1.02 0.99 0.98 0.97 0.97 1.01 1.09 1.17 1.20 1.20 1.22 1.24 1.22 1.16 1.16 1.10 1.07 1.11 1.10 1.03 1.01 0.99 0.92 0.90 0.92 0.96 0.94 0.94 0.90 0.83 0.80 0.82 0.84 0.88 0.95 1.00 1.08 1.19 1.14 1.12 1.13 1.03 1.17 1.26 1.38 1.32 1.43 1.42 1.58 1.50 1.44 1.61 1.79 1.82 1.81 1.80 1.75 1.70 1.70 1.72
1.23 1.30 1.26 1.22 1.19 1.18 1.14 1.09 1.06 1.03 1.00 1.00 0.94 0.90 0.95 0.99 1.00 0.97 0.99 0.96 1.03 1.06 1.05 1.07 1.07 1.06 1.03 1.01 1.00 1.00 1.01 1.03 1.12 1.18 1.19 1.20 1.21 1.20 1.22 1.19 1.12 1.09 1.07 1.07 1.02 1.00 0.96 0.90 0.87 0.90 0.93 0.93 0.92 0.86 0.80 0.78 0.81 0.81 0.85 0.93 0.99 1.09 1.17 1.21 1.17 1.11 1.13 1.13 1.27 1.32 1.33 1.34 1.39 1.47 1.56 1.50 1.51 1.64 1.69 1.73 1.75 1.76 1.75 1.71 1.69
1.33 1.37 1.34 1.33 1.31 1.22 1.12 1.07 1.05 1.02 1.00 0.99 0.95 0.92 0.90 0.87 0.94 0.97 1.01 1.05 0.99 0.99 1.03 1.05 1.05 1.02 1.00 1.00 0.98 0.98 1.01 1.04 1.08 1.10 1.07 1.06 1.11 1.13 1.13 1.18 1.20 1.19 1.14 1.07 1.00 0.97 0.94 0.88 0.87 0.90 0.93 0.90 0.89 0.84 0.79 0.79 0.79 0.80 0.86 0.95 1.01 1.06 1.15 1.22 1.25 1.21 1.19 1.15 1.21 1.27 1.34 1.31 1.36 1.52 1.58 1.55 1.51 1.58 1.72 1.75 1.77 1.74 1.73 1.73 1.73
1.37 1.38 1.35 1.40 1.35 1.26 1.17 1.10 1.04 1.01 0.98 0.98 0.96 0.94 0.93 0.91 0.97 0.92 0.92 0.96 1.00 1.02 1.04 1.04 0.98 0.98 1.01 0.99 0.96 0.95 0.99 1.06 1.09 1.10 1.09 1.10 1.11 1.07 1.04 1.05 1.09 1.13 1.15 1.10 1.03 0.99 0.96 0.91 0.89 0.91 0.91 0.88 0.84 0.81 0.80 0.78 0.80 0.82 0.87 0.97 1.03 1.08 1.13 1.18 1.22 1.26 1.23 1.17 1.21 1.33 1.35 1.37 1.43 1.50 1.60 1.50 1.47 1.54 1.70 1.73 1.72 1.73 1.73 1.74 1.75
1.39 1.36 1.40 1.42 1.39 1.26 1.16 1.12 1.09 1.09 1.07 1.03 0.99 0.94 0.91 0.88 0.89 0.96 0.97 0.98 1.02 1.04 1.01 0.97 0.96 1.00 1.00 0.98 0.96 0.96 1.00 1.06 1.13 1.15 1.12 1.11 1.08 1.04 0.98 0.96 0.98 1.04 1.11 1.12 1.07 1.01 0.96 0.91 0.88 0.90 0.90 0.85 0.82 0.83 0.83 0.81 0.82 0.81 0.84 0.93 1.01 1.06 1.10 1.15 1.20 1.23 1.25 1.22 1.24 1.26 1.31 1.28 1.36 1.42 1.54 1.55 1.45 1.49 1.62 1.72 1.74 1.75 1.71 1.64 1.66
1.22 1.28 1.38 1.43 1.34 1.22 1.17 1.13 1.10 1.08 1.07 1.02 0.98 0.93 0.93 0.93 0.94 0.97 1.00 0.98 0.95 0.94 0.95 0.95 0.98 0.95 0.96 0.98 0.98 0.99 1.01 1.03 1.09 1.15 1.16 1.14 1.10 1.05 1.03 1.03 1.05 1.06 1.09 1.07 1.03 1.00 0.95 0.91 0.90 0.92 0.92 0.87 0.82 0.81 0.81 0.81 0.82 0.82 0.86 0.92 1.01 1.05 1.07 1.11 1.17 1.20 1.22 1.22 1.23 1.28 1.27 1.30 1.37 1.34 1.47 1.57 1.54 1.55 1.57 1.60 1.65 1.75 1.73 1.62 1.55
1.28 1.33 1.35 1.28 1.20 1.14 1.13 1.16 1.14 1.10 1.08 1.05 0.99 0.95 0.90 0.87 0.87 0.90 0.94 0.94 0.99 0.96 0.92 0.92 0.94 0.94 0.93 0.92 0.93 0.98 1.02 1.05 1.11 1.18 1.19 1.18 1.14 1.11 1.10 1.09 1.07 1.06 1.04 1.01 0.98 0.94 0.91 0.91 0.93 0.95 0.95 0.90 0.83 0.82 0.82 0.82 0.85 0.85 0.90 0.96 1.02 1.06 1.05 1.09 1.14 1.18 1.19 1.21 1.20 1.20 1.26 1.24 1.32 1.42 1.47 1.51 1.46 1.45 1.56 1.56 1.53 1.63 1.67 1.67 1.65
1.35 1.40 1.34 1.22 1.11 1.05 1.06 1.08 1.10 1.10 1.05 0.99 0.95 0.90 0.88 0.91 0.94 0.97 1.01 0.99 1.00 0.99 0.96 0.94 0.94 0.92 0.93 0.95 0.98 1.02 1.02 1.06 1.14 1.23 1.27 1.25 1.21 1.16 1.11 1.03 0.99 0.97 0.94 0.92 0.91 0.90 0.91 0.90 0.92 0.97 1.01 0.97 0.89 0.87 0.88 0.90 0.90 0.88 0.92 0.97 1.03 1.06 1.06 1.08 1.13 1.17 1.18 1.20 1.19 1.24 1.24 1.26 1.31 1.35 1.35 1.37 1.36 1.31 1.44 1.55 1.58 1.68 1.68 1.65 1.72
1.45 1.42 1.30 1.20 1.10 1.03 1.01 1.03 1.05 1.05 1.01 0.96 0.93 0.89 0.88 0.92 0.95 0.98 1.01 1.03 1.02 1.00 0.97 0.95 0.93 0.93 0.92 0.94 0.96 0.98 1.01 1.09 1.12 1.20 1.25 1.20 1.17 1.11 1.03 0.99 0.95 0.92 0.91 0.90 0.89 0.90 0.92 0.95 0.96 0.99 1.03 1.02 0.96 0.93 0.93 0.93 0.97 0.99 0.99 1.03 1.06 1.08 1.08 1.10 1.14 1.17 1.17 1.16 1.16 1.17 1.17 1.18 1.26 1.35 1.36 1.40 1.47 1.45 1.39 1.47 1.53 1.64 1.67 1.59 1.66
1.48 1.39 1.28 1.20 1.11 1.06 1.03 1.01 1.01 0.99 0.97 0.95 0.92 0.88 0.88 0.92 0.96 1.01 1.04 1.06 1.03 0.99 0.96 0.93 0.91 0.90 0.90 0.92 0.95 1.00 1.04 1.06 1.08 1.09 1.11 1.12 1.12 1.08 1.03 0.99 0.98 0.97 0.95 0.93 0.92 0.92 0.95 0.98 1.01 1.04 1.07 1.06 1.04 1.00 0.95 0.95 1.00 1.04 1.04 1.07 1.12 1.11 1.11 1.12 1.16 1.20 1.17 1.16 1.18 1.16 1.14 1.14 1.24 1.37 1.42 1.42 1.47 1.44 1.38 1.42 1.53 1.60 1.57 1.52 1.45
1.43 1.33 1.22 1.13 1.10 1.07 1.04 1.02 1.00 0.99 0.97 0.94 0.90 0.91 0.94 0.96 0.99 1.03 1.07 1.09 1.10 1.06 0.97 0.93 0.92 0.93 0.93 0.94 0.96 0.99 1.01 1.00 0.97 0.98 1.00 1.03 1.07 1.07 1.03 1.00 1.00 1.00 0.98 0.96 0.98 0.97 0.98 1.02 1.08 1.10 1.10 1.11 1.10 1.02 0.96 0.99 1.05 1.05 1.03 1.08 1.09 1.12 1.19 1.22 1.20 1.19 1.20 1.16 1.15 1.15 1.15 1.14 1.21 1.36 1.43 1.45 1.42 1.46 1.44 1.40 1.44 1.51 1.54 1.53 1.54
1.39 1.27 1.16 1.09 1.07 1.04 1.01 1.00 0.98 0.96 0.95 0.93 0.94 0.96 0.98 1.01 1.03 1.06 1.09 1.15 1.14 1.03 0.95 0.93 0.91 0.92 0.93 0.94 0.92 0.93 0.92 0.94 0.92 0.92 0.94 0.98 1.03 1.05 1.04 1.03 1.03 1.03 1.04 1.05 1.03 1.03 1.04 1.08 1.10 1.12 1.13 1.15 1.17 1.11 1.06 1.04 1.03 1.00 1.02 1.05 1.08 1.12 1.17 1.24 1.29 1.30 1.29 1.23 1.18 1.16 1.17 1.19 1.21 1.29 1.45 1.53 1.56 1.48 1.48 1.40 1.43 1.55 1.63 1.60 1.59
1.35 1.23 1.15 1.09 1.07 1.02 0.98 0.95 0.92 0.92 0.92 0.94 0.97 0.99 1.01 1.03 1.08 1.13 1.14 1.16 1.12 1.04 0.98 0.92 0.92 0.93 0.97 0.96 0.94 0.93 0.91 0.91 0.91 0.92 0.93 0.97 1.00 1.03 1.05 1.07 1.08 1.09 1.09 1.08 1.10 1.11 1.11 1.14 1.13 1.18 1.24 1.25 1.23 1.22 1.17 1.05 0.99 0.99 1.02 1.06 1.07 1.11 1.15 1.20 1.26 1.31 1.33 1.28 1.23 1.16 1.21 1.26 1.23 1.32 1.44 1.55 1.53 1.48 1.49 1.43 1.45 1.50 1.55 1.56 1.65
1.22 1.19 1.14 1.10 1.08 1.04 0.99 0.95 0.92 0.92 0.94 0.97 0.98 0.98 1.02 1.07 1.11 1.13 1.17 1.22 1.16 1.04 0.98 0.96 0.95 0.95 0.98 0.97 0.93 0.94 0.95 0.95 0.95 0.94 0.94 0.95 0.97 1.01 1.04 1.07 1.10 1.13 1.12 1.10 1.09 1.09 1.11 1.20 1.19 1.12 1.12 1.12 1.12 1.12 1.11 1.06 1.02 1.02 1.05 1.08 1.09 1.11 1.15 1.20 1.27 1.30 1.31 1.31 1.26 1.23 1.22 1.25 1.28 1.34 1.42 1.49 1.52 1.57 1.60 1.56 1.55 1.53 1.56 1.67 1.70
1.20 1.18 1.14 1.11 1.08 1.04 0.98 0.97 0.96 0.97 0.99 0.99 0.97 0.99 1.06 1.14 1.16 1.19 1.20 1.26 1.22 1.07 0.99 0.99 0.97 0.96 0.99 1.01 0.97 0.95 0.96 0.97 0.95 0.94 0.95 0.96 1.00 1.01 1.02 1.05 1.08 1.12 1.12 1.09 1.07 1.08 1.09 1.09 1.12 1.12 1.07 1.06 1.05 1.06 1.13 1.13 1.08 1.04 1.06 1.09 1.10 1.12 1.15 1.25 1.33 1.35 1.35 1.35 1.32 1.27 1.26 1.27 1.28 1.29 1.36 1.45 1.52 1.57 1.62 1.66 1.68 1.65 1.61 1.58 1.55
1.20 1.15 1.09 1.07 1.07 1.05 0.99 1.00 1.04 1.05 1.03 0.99 0.99 1.03 1.08 1.11 1.12 1.18 1.22 1.25 1.16 1.05 1.00 1.01 1.01 0.98 0.96 0.97 0.96 0.98 1.05 1.09 1.03 0.99 1.00 1.02 1.01 0.99 1.01 1.06 1.10 1.11 1.10 1.11 1.10 1.09 1.09 1.11 1.10 1.06 1.04 1.02 1.02 1.05 1.11 1.11 1.06 1.06 1.07 1.08 1.10 1.11 1.13 1.22 1.29 1.34 1.35 1.36 1.35 1.31 1.29 1.28 1.28 1.27 1.29 1.34 1.40 1.48 1.56 1.52 1.49 1.56 1.50 1.42 1.46
1.08 1.04 1.01 1.00 1.01 1.01 1.01 1.01 1.02 1.03 1.02 0.99 1.00 1.05 1.08 1.10 1.12 1.19 1.23 1.22 1.13 1.05 1.04 1.03 1.03 1.03 1.02 0.99 0.98 0.99 1.04 1.05 1.02 1.03 1.05 1.07 1.04 1.00 1.01 1.03 1.04 1.06 1.07 1.10 1.11 1.09 1.10 1.10 1.08 1.04 1.03 1.01 1.00 1.04 1.07 1.09 1.04 1.05 1.08 1.08 1.07 1.08 1.11 1.20 1.25 1.29 1.36 1.36 1.35 1.34 1.33 1.31 1.29 1.28 1.29 1.31 1.36 1.46 1.48 1.40 1.45 1.48 1.42 1.43 1.39
1.05 1.01 0.99 1.00 1.00 1.03 1.03 1.01 0.99 0.99 1.00 1.03 1.06 1.06 1.06 1.07 1.11 1.17 1.17 1.14 1.11 1.08 1.07 1.03 1.00 0.99 1.00 0.98 0.99 1.01 1.03 1.06 1.09 1.10 1.12 1.13 1.08 1.04 1.02 1.02 1.02 1.04 1.08 1.07 1.06 1.08 1.10 1.10 1.06 1.05 1.03 1.01 1.02 1.03 1.04 1.05 1.04 1.06 1.10 1.09 1.06 1.07 1.12 1.19 1.18 1.23 1.30 1.29 1.29 1.32 1.35 1.37 1.34 1.31 1.30 1.31 1.34 1.41 1.47 1.51 1.58 1.51 1.42 1.46 1.46
1.11 1.09 1.06 1.05 1.06 1.06 1.05 1.04 1.02 1.01 1.03 1.07 1.10 1.10 1.10 1.09 1.10 1.12 1.15 1.16 1.10 1.10 1.09 1.02 0.96 0.95 0.99 0.99 1.03 1.17 1.15 1.16 1.16 1.15 1.16 1.12 1.06 1.03 1.05 1.04 1.04 1.06 1.08 1.07 1.04 1.02 1.01 1.00 1.02 1.04 1.04 1.03 0.97 0.92 0.95 1.02 1.06 1.10 1.15 1.10 1.07 1.07 1.18 1.19 1.19 1.26 1.30 1.28 1.29 1.34 1.37 1.41 1.38 1.35 1.33 1.32 1.33 1.36 1.45 1.57 1.63 1.58 1.48 1.49 1.44
1.11 1.09 1.08 1.06 1.07 1.08 1.10 1.09 1.06 1.05 1.07 1.09 1.13 1.13 1.11 1.09 1.11 1.12 1.12 1.11 1.06 1.02 1.03 1.04 1.00 0.98 1.07 1.22 1.27 1.31 1.33 1.27 1.23 1.22 1.17 1.10 1.06 1.04 1.05 1.07 1.08 1.05 1.05 1.04 1.03 0.98 0.95 0.96 0.99 1.04 1.04 0.96 0.88 0.88 0.95 1.03 1.09 1.14 1.19 1.15 1.16 1.19 1.23 1.17 1.17 1.23 1.27 1.28 1.30 1.33 1.37 1.39 1.39 1.38 1.35 1.32 1.31 1.35 1.40 1.49 1.56 1.56 1.50 1.42 1.42
1.06 1.03 1.01 1.00 1.03 1.07 1.09 1.12 1.08 1.08 1.12 1.13 1.11 1.10 1.11 1.14 1.19 1.28 1.24 1.12 1.07 1.07 1.07 1.06 1.04 1.11 1.18 1.16 1.13 1.14 1.19 1.26 1.22 1.21 1.17 1.11 1.09 1.08 1.06 1.06 1.07 1.03 0.99 0.99 0.99 0.96 0.96 0.96 0.99 1.06 1.00 0.91 0.90 0.91 0.97 1.03 1.11 1.17 1.20 1.21 1.21 1.22 1.21 1.17 1.18 1.20 1.22 1.26 1.29 1.31 1.34 1.36 1.40 1.43 1.40 1.36 1.34 1.39 1.42 1.44 1.47 1.52 1.56 1.56 1.54
1.15 1.10 1.07 1.06 1.06 1.10 1.12 1.11 1.12 1.11 1.10 1.09 1.08 1.04 1.12 1.17 1.28 1.35 1.21 1.09 1.05 1.07 1.07 1.04 1.04 1.05 1.07 1.07 1.06 1.02 0.97 1.04 1.21 1.23 1.22 1.14 1.11 1.10 1.10 1.08 1.07 1.05 1.00 0.96 0.97 0.97 0.98 0.98 1.04 1.03 0.93 0.92 0.95 0.96 1.00 1.07 1.13 1.16 1.20 1.21 1.21 1.23 1.23 1.18 1.15 1.16 1.16 1.20 1.27 1.28 1.31 1.35 1.38 1.43 1.46 1.39 1.41 1.47 1.48 1.46 1.46 1.49 1.52 1.54 1.53
1.17 1.19 1.22 1.18 1.15 1.11 1.13 1.15 1.11 1.13 1.12 1.11 1.11 1.11 1.12 1.18 1.23 1.23 1.16 1.11 1.12 1.09 1.05 1.00 1.00 0.98 0.97 1.03 1.04 1.01 1.04 1.08 1.13 1.18 1.24 1.21 1.17 1.13 1.09 1.06 1.04 1.01 1.01 0.99 0.99 0.98 1.00 1.03 1.01 0.95 0.90 0.97 1.03 1.02 1.04 1.12 1.12 1.13 1.18 1.20 1.20 1.23 1.21 1.16 1.13 1.14 1.14 1.16 1.24 1.27 1.30 1.35 1.41 1.46 1.49 1.53 1.47 1.51 1.53 1.51 1.46 1.46 1.47 1.48 1.48
1.18 1.16 1.14 1.17 1.19 1.16 1.15 1.15 1.15 1.22 1.27 1.21 1.16 1.16 1.15 1.19 1.15 1.14 1.11 1.11 1.11 1.05 1.00 0.99 0.97 0.95 0.94 0.93 0.95 0.95 1.00 1.06 1.09 1.12 1.16 1.14 1.14 1.12 1.07 1.00 0.96 0.99 0.98 1.00 1.02 1.05 1.05 1.02 0.97 0.94 0.96 1.05 1.10 1.09 1.13 1.14 1.10 1.11 1.15 1.16 1.18 1.16 1.16 1.13 1.13 1.13 1.11 1.13 1.20 1.27 1.32 1.37 1.42 1.50 1.61 1.65 1.65 1.60 1.57 1.57 1.55 1.50 1.46 1.43 1.41
1.09 1.12 1.18 1.23 1.25 1.28 1.25 1.27 1.28 1.28 1.22 1.19 1.14 1.14 1.12 1.09 1.06 1.08 1.09 1.04 0.99 0.95 0.93 0.93 0.95 0.97 0.96 0.96 0.94 0.95 1.01 1.07 1.10 1.13 1.12 1.12 1.09 1.04 0.96 0.93 0.92 0.95 0.98 1.00 1.01 1.02 1.02 0.99 0.98 1.00 1.04 1.10 1.10 1.09 1.11 1.11 1.09 1.11 1.13 1.15 1.16 1.14 1.14 1.12 1.13 1.12 1.11 1.14 1.18 1.25 1.31 1.38 1.45 1.52 1.59 1.65 1.63 1.63 1.61 1.56 1.56 1.55 1.54 1.48 1.41
1.05 1.05 1.07 1.16 1.29 1.27 1.20 1.18 1.14 1.11 1.11 1.15 1.16 1.15 1.12 1.08 1.05 1.04 1.03 0.94 0.89 0.89 0.89 0.89 0.92 0.92 0.92 0.94 0.98 1.00 1.01 1.08 1.09 1.09 1.10 1.07 1.00 0.94 0.90 0.89 0.89 0.91 0.93 0.96 0.96 0.97 0.97 1.00 1.02 1.03 1.05 1.09 1.02 1.04 1.09 1.11 1.10 1.09 1.11 1.14 1.16 1.15 1.15 1.15 1.15 1.15 1.14 1.16 1.18 1.23 1.30 1.35 1.40 1.45 1.49 1.53 1.56 1.62 1.68 1.64 1.57 1.54 1.56 1.54 1.46
1.13 1.14 1.23 1.27 1.21 1.16 1.15 1.08 1.06 1.04 1.08 1.08 1.06 1.04 1.05 1.08 1.05 1.00 0.94 0.87 0.83 0.80 0.79 0.80 0.84 0.86 0.88 0.94 0.97 1.00 1.04 1.03 1.05 1.05 1.06 1.01 0.93 0.90 0.88 0.87 0.87 0.88 0.89 0.91 0.93 0.96 0.98 1.05 1.08 1.03 1.06 1.03 0.97 0.98 1.04 1.06 1.07 1.07 1.09 1.11 1.14 1.16 1.16 1.16 1.16 1.16 1.18 1.20 1.20 1.23 1.26 1.30 1.29 1.32 1.38 1.41 1.48 1.56 1.65 1.66 1.64 1.61 1.62 1.58 1.50
1.21 1.21 1.17 1.11 1.11 1.14 1.14 1.13 1.09 1.08 1.10 1.09 1.10 1.08 1.05 1.01 0.95 0.91 0.91 0.90 0.86 0.83 0.83 0.86 0.87 0.89 0.91 0.94 0.94 0.95 0.98 0.98 1.02 1.06 1.04 0.99 0.91 0.85 0.82 0.80 0.79 0.82 0.88 0.91 0.94 0.97 1.01 1.00 0.97 0.99 1.00 0.95 0.90 0.92 0.97 0.99 1.01 1.04 1.06 1.09 1.11 1.12 1.12 1.10 1.09 1.10 1.15 1.18 1.14 1.15 1.20 1.26 1.27 1.29 1.29 1.32 1.38 1.47 1.56 1.60 1.61 1.63 1.67 1.64 1.51
1.05 0.99 1.05 1.08 1.13 1.13 1.09 1.07 1.06 1.06 1.08 1.09 1.05 1.02 1.04 0.98 0.94 0.89 0.87 0.91 0.92 0.93 0.93 0.90 0.90 0.94 0.94 0.97 0.99 0.95 0.95 1.01 1.05 1.05 1.02 0.97 0.94 0.88 0.82 0.81 0.80 0.80 0.82 0.86 0.89 0.88 0.90 0.92 0.94 0.95 0.96 0.93 0.88 0.88 0.91 0.94 0.95 0.97 1.01 1.05 1.08 1.09 1.10 1.11 1.11 1.12 1.15 1.15 1.15 1.13 1.16 1.21 1.23 1.28 1.27 1.27 1.32 1.39 1.48 1.51 1.53 1.58 1.55 1.52 1.49
0.93 0.92 0.96 0.97 0.98 1.05 1.03 1.02 1.02 1.03 1.03 1.02 1.00 0.95 0.89 0.91 0.93 0.94 0.93 0.94 0.96 0.96 0.96 0.96 0.97 1.00 0.99 0.95 1.00 1.03 1.04 1.05 1.05 1.03 0.99 0.95 0.91 0.86 0.83 0.82 0.81 0.80 0.82 0.83 0.83 0.80 0.80 0.84 0.90 0.93 0.93 0.91 0.86 0.85 0.88 0.89 0.92 0.94 0.95 0.99 1.04 1.05 1.08 1.09 1.12 1.13 1.14 1.13 1.14 1.13 1.15 1.18 1.18 1.24 1.29 1.28 1.26 1.30 1.37 1.43 1.47 1.50 1.49 1.46 1.43
0.87 0.88 0.89 0.94 0.92 0.92 0.93 0.96 0.98 1.00 1.01 0.98 0.92 0.91 0.89 0.85 0.88 0.94 0.95 0.94 0.96 0.97 0.97 0.98 0.99 1.01 1.03 1.02 1.01 1.03 1.05 1.05 1.04 1.00 0.95 0.91 0.87 0.86 0.84 0.81 0.80 0.79 0.81 0.83 0.77 0.76 0.76 0.76 0.80 0.84 0.86 0.84 0.82 0.83 0.85 0.87 0.89 0.91 0.92 0.93 0.97 1.02 1.04 1.06 1.13 1.14 1.13 1.13 1.11 1.12 1.13 1.16 1.18 1.18 1.24 1.29 1.28 1.27 1.32 1.35 1.37 1.38 1.42 1.47 1.47
0.83 0.88 0.92 0.91 0.90 0.93 0.94 0.94 0.97 0.97 0.90 0.88 0.88 0.90 0.88 0.90 0.85 0.86 0.92 0.97 0.98 0.98 0.98 0.99 0.99 1.00 1.01 1.01 1.01 1.01 1.02 1.03 1.00 0.95 0.89 0.87 0.87 0.86 0.84 0.82 0.79 0.77 0.77 0.73 0.69 0.68 0.70 0.71 0.72 0.75 0.78 0.78 0.79 0.80 0.83 0.84 0.86 0.89 0.90 0.89 0.91 0.96 1.01 1.06 1.12 1.11 1.13 1.13 1.12 1.10 1.12 1.14 1.17 1.18 1.20 1.24 1.27 1.28 1.30 1.28 1.30 1.30 1.30 1.33 1.39
0.86 0.88 0.90 0.91 0.89 0.89 0.91 0.93 0.93 0.94 0.94 0.92 0.94 0.93 0.92 0.90 0.90 0.87 0.86 0.89 0.93 0.97 1.00 1.00 0.99 0.98 0.98 0.98 0.98 0.97 0.95 0.92 0.89 0.88 0.88 0.89 0.88 0.87 0.84 0.82 0.82 0.77 0.73 0.69 0.67 0.65 0.67 0.67 0.69 0.71 0.73 0.74 0.75 0.77 0.78 0.80 0.82 0.85 0.87 0.87 0.88 0.93 0.97 1.02 1.04 1.05 1.08 1.10 1.09 1.09 1.10 1.12 1.13 1.15 1.17 1.19 1.21 1.24 1.28 1.30 1.28 1.26 1.25 1.25 1.26
0.84 0.84 0.86 0.85 0.82 0.82 0.87 0.90 0.91 0.92 0.95 0.96 0.96 0.95 0.96 0.98 0.93 0.92 0.88 0.87 0.87 0.88 0.93 0.97 1.00 1.00 0.97 0.94 0.90 0.87 0.85 0.84 0.85 0.86 0.87 0.88 0.89 0.90 0.87 0.81 0.77 0.71 0.72 0.70 0.66 0.64 0.64 0.64 0.65 0.67 0.69 0.70 0.71 0.71 0.71 0.73 0.75 0.77 0.80 0.82 0.82 0.84 0.88 0.92 0.94 0.97 1.01 1.05 1.07 1.08 1.08 1.09 1.11 1.13 1.15 1.16 1.16 1.16 1.20 1.24 1.28 1.30 1.28 1.26 1.23
0.84 0.85 0.85 0.89 0.91 0.91 0.88 0.91 0.94 0.95 0.95 0.97 0.95 0.93 0.92 0.89 0.88 0.90 0.91 0.92 0.94 0.95 0.95 0.98 0.99 0.99 0.99 0.96 0.93 0.89 0.86 0.86 0.87 0.89 0.90 0.91 0.90 0.89 0.80 0.74 0.69 0.68 0.66 0.67 0.65 0.63 0.62 0.61 0.61 0.62 0.64 0.64 0.65 0.65 0.66 0.67 0.68 0.69 0.73 0.77 0.79 0.80 0.80 0.83 0.86 0.90 0.94 0.98 1.01 1.05 1.07 1.07 1.10 1.10 1.12 1.14 1.15 1.15 1.17 1.19 1.21 1.25 1.27 1.26 1.26
0.91 0.92 0.97 0.97 1.00 0.98 1.00 0.97 0.96 0.97 1.00 0.99 0.96 0.94 0.89 0.88 0.90 0.93 0.94 0.93 0.94 0.98 0.99 0.99 0.99 0.99 1.00 0.98 0.96 0.96 0.95 0.92 0.92 0.91 0.91 0.92 0.92 0.86 0.79 0.76 0.73 0.71 0.68 0.66 0.64 0.62 0.60 0.59 0.59 0.59 0.60 0.61 0.62 0.62 0.61 0.61 0.62 0.63 0.64 0.65 0.69 0.73 0.76 0.79 0.81 0.85 0.88 0.91 0.95 0.98 1.01 1.02 1.04 1.05 1.06 1.08 1.11 1.13 1.13 1.16 1.19 1.21 1.24 1.26 1.24
0.96 0.98 0.97 0.98 0.97 1.02 0.97 0.97 1.02 1.03 0.99 0.96 0.95 0.92 0.92 0.92 0.91 0.93 0.92 0.90 0.92 0.93 0.95 0.95 0.92 0.92 0.89 0.91 0.96 0.97 0.94 0.93 0.90 0.86 0.87 0.86 0.87 0.83 0.80 0.78 0.75 0.71 0.68 0.67 0.66 0.64 0.61 0.58 0.59 0.57 0.57 0.58 0.58 0.59 0.58 0.58 0.59 0.58 0.57 0.58 0.58 0.60 0.62 0.67 0.72 0.77 0.81 0.85 0.88 0.93 0.95 0.97 1.00 1.01 1.01 1.01 1.04 1.07 1.09 1.13 1.14 1.14 1.18 1.21 1.25
0.98 0.96 0.95 0.95 0.96 0.98 1.00 1.00 0.99 0.98 0.96 0.95 0.95 0.93 0.92 0.90 0.90 0.90 0.90 0.90 0.91 0.92 0.93 0.92 0.90 0.89 0.90 0.93 0.91 0.92 0.88 0.85 0.80 0.76 0.75 0.75 0.75 0.75 0.75 0.74 0.72 0.69 0.67 0.66 0.67 0.64 0.61 0.58 0.57 0.56 0.54 0.55 0.55 0.55 0.54 0.54 0.54 0.53 0.53 0.52 0.51 0.53 0.54 0.55 0.58 0.64 0.70 0.75 0.79 0.84 0.88 0.92 0.95 0.97 0.98 0.98 0.98 1.03 1.05 1.07 1.09 1.11 1.11 1.13 1.16
0.98 0.97 0.97 0.96 0.96 0.98 0.99 1.00 1.00 0.99 0.97 0.95 0.94 0.94 0.89 0.87 0.87 0.87 0.88 0.88 0.87 0.87 0.88 0.87 0.88 0.89 0.91 0.90 0.88 0.86 0.80 0.78 0.75 0.74 0.71 0.70 0.67 0.68 0.70 0.69 0.68 0.66 0.65 0.64 0.63 0.62 0.60 0.58 0.57 0.55 0.54 0.54 0.54 0.53 0.51 0.49 0.48 0.48 0.47 0.48 0.45 0.46 0.47 0.49 0.51 0.52 0.56 0.62 0.67 0.73 0.77 0.82 0.88 0.91 0.93 0.95 0.96 0.99 0.99 1.01 1.03 1.06 1.08 1.10 1.11
0.98 0.99 0.99 0.98 0.99 1.00 0.99 0.99 0.97 0.98 0.97 0.96 0.96 0.93 0.91 0.92 0.91 0.91 0.89 0.88 0.87 0.88 0.88 0.88 0.89 0.92 0.93 0.92 0.88 0.85 0.81 0.76 0.73 0.72 0.69 0.66 0.65 0.65 0.65 0.65 0.65 0.65 0.64 0.62 0.61 0.61 0.59 0.58 0.56 0.55 0.52 0.50 0.50 0.50 0.49 0.48 0.46 0.43 0.41 0.42 0.39 0.38 0.39 0.41 0.44 0.47 0.49 0.53 0.55 0.58 0.64 0.69 0.74 0.79 0.83 0.89 0.93 0.95 0.96 0.99 1.00 1.02 1.04 1.05 1.06
0.97 0.99 0.99 1.01 0.99 1.00 0.98 0.98 0.99 0.99 0.99 0.98 0.97 0.96 0.95 0.94 0.93 0.95 0.95 0.94 0.95 0.91 0.90 0.90 0.91 0.92 0.92 0.90 0.87 0.84 0.80 0.76 0.74 0.69 0.67 0.65 0.63 0.61 0.62 0.62 0.63 0.61 0.59 0.58 0.58 0.56 0.56 0.55 0.55 0.53 0.50 0.47 0.45 0.44 0.43 0.40 0.37 0.35 0.34 0.34 0.31 0.29 0.29 0.31 0.35 0.38 0.42 0.46 0.50 0.53 0.54 0.59 0.62 0.66 0.72 0.79 0.84 0.88 0.89 0.91 0.93 0.96 0.98 0.98 0.99
1.01 1.01 1.03 1.03 1.01 1.01 1.00 1.01 1.02 1.01 1.00 0.99 0.98 0.99 0.99 0.97 0.95 0.93 0.94 0.94 0.92 0.91 0.88 0.87 0.87 0.88 0.88 0.87 0.82 0.77 0.71 0.70 0.68 0.66 0.64 0.61 0.59 0.57 0.56 0.59 0.59 0.58 0.56 0.55 0.55 0.55 0.55 0.53 0.52 0.49 0.46 0.44 0.42 0.39 0.37 0.34 0.30 0.27 0.25 0.24 0.25 0.24 0.24 0.26 0.29 0.32 0.35 0.38 0.42 0.46 0.48 0.52 0.54 0.55 0.61 0.66 0.72 0.78 0.80 0.83 0.85 0.87 0.90 0.94 0.95
1.01 1.02 1.03 1.02 1.03 1.03 1.05 1.03 1.01 0.99 0.98 0.98 1.00 0.98 0.97 0.94 0.94 0.94 0.92 0.91 0.89 0.87 0.85 0.83 0.83 0.82 0.83 0.83 0.77 0.71 0.70 0.68 0.65 0.61 0.59 0.58 0.54 0.53 0.54 0.55 0.55 0.55 0.54 0.54 0.51 0.48 0.49 0.48 0.47 0.45 0.43 0.38 0.37 0.36 0.33 0.31 0.27 0.23 0.21 0.20 0.20 0.21 0.20 0.22 0.25 0.28 0.32 0.34 0.36 0.38 0.39 0.42 0.44 0.45 0.52 0.57 0.60 0.64 0.68 0.73 0.76 0.79 0.82 0.85 0.89
0.99 0.98 0.98 0.98 0.99 1.00 1.00 1.01 0.99 0.98 0.97 0.97 0.96 0.96 0.94 0.91 0.90 0.90 0.90 0.88 0.86 0.84 0.81 0.80 0.79 0.78 0.78 0.78 0.75 0.71 0.68 0.64 0.59 0.56 0.55 0.53 0.50 0.50 0.50 0.52 0.52 0.46 0.47 0.48 0.49 0.44 0.43 0.43 0.40 0.37 0.35 0.34 0.33 0.32 0.30 0.27 0.24 0.21 0.19 0.17 0.16 0.17 0.17 0.19 0.24 0.27 0.30 0.30 0.31 0.33 0.35 0.35 0.34 0.34 0.39 0.45 0.49 0.54 0.59 0.62 0.64 0.68 0.71 0.77 0.81
1.00 1.00 0.99 0.99 1.00 1.01 0.99 0.98 0.96 0.95 0.92 0.91 0.90 0.89 0.89 0.88 0.87 0.85 0.84 0.83 0.81 0.80 0.79 0.78 0.76 0.74 0.73 0.71 0.68 0.65 0.61 0.58 0.54 0.51 0.50 0.49 0.47 0.48 0.49 0.48 0.48 0.46 0.43 0.40 0.40 0.39 0.35 0.35 0.34 0.30 0.32 0.31 0.27 0.27 0.26 0.24 0.22 0.21 0.18 0.17 0.16 0.16 0.17 0.19 0.24 0.27 0.28 0.28 0.29 0.29 0.31 0.32 0.31 0.30 0.31 0.34 0.35 0.38 0.43 0.48 0.51 0.54 0.57 0.62 0.70
0.98 1.00 0.97 0.95 0.93 0.94 0.95 0.96 0.94 0.92 0.92 0.90 0.89 0.86 0.84 0.85 0.81 0.78 0.75 0.75 0.75 0.75 0.76 0.74 0.70 0.66 0.64 0.64 0.63 0.60 0.55 0.51 0.48 0.48 0.46 0.46 0.43 0.45 0.44 0.42 0.44 0.42 0.37 0.35 0.31 0.34 0.33 0.31 0.30 0.29 0.26 0.29 0.29 0.25 0.24 0.23 0.21 0.19 0.18 0.17 0.17 0.17 0.17 0.20 0.24 0.26 0.27 0.29 0.29 0.29 0.30 0.30 0.30 0.27 0.24 0.27 0.29 0.29 0.31 0.34 0.38 0.41 0.43 0.48 0.53
0.96 0.93 0.91 0.90 0.89 0.87 0.87 0.88 0.87 0.86 0.86 0.84 0.82 0.80 0.80 0.78 0.76 0.73 0.71 0.70 0.68 0.68 0.68 0.66 0.64 0.60 0.56 0.55 0.53 0.51 0.48 0.47 0.46 0.44 0.45 0.46 0.45 0.43 0.41 0.38 0.38 0.38 0.37 0.32 0.31 0.29 0.29 0.28 0.29 0.30 0.29 0.28 0.28 0.26 0.24 0.22 0.20 0.19 0.18 0.17 0.17 0.18 0.18 0.20 0.23 0.25 0.27 0.28 0.29 0.30 0.30 0.30 0.31 0.29 0.23 0.25 0.27 0.27 0.27 0.28 0.31 0.33 0.33 0.35 0.40
0.88 0.87 0.86 0.85 0.84 0.84 0.83 0.83 0.81 0.79 0.77 0.77 0.75 0.74 0.71 0.68 0.69 0.70 0.68 0.65 0.62 0.60 0.59 0.58 0.56 0.53 0.52 0.50 0.49 0.47 0.46 0.45 0.45 0.44 0.43 0.44 0.43 0.41 0.38 0.33 0.29 0.33 0.32 0.31 0.29 0.30 0.30 0.27 0.27 0.28 0.29 0.31 0.31 0.27 0.25 0.22 0.19 0.19 0.18 0.18 0.18 0.18 0.18 0.20 0.23 0.25 0.26 0.28 0.29 0.30 0.31 0.31 0.31 0.30 0.25 0.23 0.26 0.27 0.26 0.27 0.27 0.27 0.27 0.28 0.30
0.84 0.83 0.82 0.82 0.82 0.81 0.78 0.76 0.74 0.73 0.71 0.67 0.66 0.65 0.66 0.62 0.60 0.63 0.61 0.56 0.52 0.52 0.52 0.52 0.50 0.50 0.49 0.47 0.47 0.45 0.45 0.41 0.40 0.40 0.42 0.42 0.40 0.37 0.32 0.29 0.30 0.32 0.33 0.31 0.29 0.27 0.32 0.32 0.30 0.28 0.29 0.30 0.31 0.29 0.26 0.24 0.21 0.20 0.19 0.19 0.19 0.19 0.19 0.20 0.24 0.26 0.27 0.28 0.29 0.30 0.31 0.31 0.30 0.30 0.27 0.24 0.26 0.26 0.25 0.26 0.26 0.26 0.24 0.25 0.25
0.80 0.74 0.73 0.73 0.74 0.75 0.75 0.73 0.72 0.71 0.70 0.68 0.67 0.67 0.63 0.59 0.56 0.56 0.54 0.52 0.51 0.49 0.49 0.50 0.49 0.48 0.48 0.47 0.44 0.43 0.42 0.42 0.42 0.40 0.38 0.35 0.34 0.32 0.31 0.29 0.28 0.26 0.27 0.25 0.31 0.30 0.28 0.32 0.32 0.31 0.32 0.32 0.32 0.30 0.28 0.26 0.25 0.23 0.21 0.19 0.19 0.19 0.20 0.20 0.23 0.26 0.28 0.30 0.31 0.32 0.32 0.30 0.29 0.27 0.26 0.25 0.26 0.26 0.25 0.26 0.26 0.25 0.23 0.24 0.25
Wind_Speed
16 17 17 17 18 18 19 20 21 22 22 22 23 23 23 23 23 23 23 23 23 24 24 24 25 25 25 26 26 26 27 27 27 27 27 27 27 27 27 28 29 30 30 30 30 30 30 30 30 29 29 29 29 30 30 31 32 32 33 33 34 35 36 36 37 37 37 38 38 39 39 39 39 39 38 38 38 40 40 39 39 39 39 39 39
17 17 18 18 18 19 19 20 21 22 22 23 23 23 24 24 24 24 23 22 23 23 24 25 25 26 26 27 27 27 27 27 27 27 27 27 27 28 28 28 30 30 30 30 30 30 30 30 30 30 30 30 29 30 30 31 32 32 33 33 33 34 35 36 37 37 37 37 38 38 38 39 39 39 39 39 38 40 41 40 39 39 39 38 38
17 18 18 18 19 19 20 21 21 22 23 23 24 24 25 25 25 24 23 23 23 23 24 25 26 26 27 28 28 28 28 28 28 28 28 28 28 28 29 29 30 31 31 31 31 30 30 31 31 30 29 29 29 29 30 30 31 32 32 32 32 33 34 35 37 37 37 38 38 38 38 39 40 39 38 39 38 40 41 41 40 39 39 38 38
18 18 19 19 19 19 20 21 22 22 23 24 24 25 25 25 25 24 24 24 24 25 25 26 26 27 27 28 28 28 28 28 28 28 29 29 29 29 30 31 31 31 31 32 31 31 31 31 30 29 28 28 28 28 29 30 30 31 32 32 32 32 33 34 35 36 37 37 37 38 38 38 39 39 38 38 38 39 41 41 40 39 39 38 37
18 18 19 19 19 20 21 22 22 23 24 24 25 25 25 25 24 24 25 25 25 25 26 26 27 27 27 28 28 28 29 29 29 29 29 29 30 30 31 31 31 31 31 31 31 30 30 30 28 27 27 27 27 28 28 29 30 31 31 31 32 32 32 33 34 35 36 37 37 38 38 38 38 38 37 37 37 39 41 41 40 39 39 38 37
17 18 19 19 20 20 21 22 23 23 24 24 25 25 25 25 25 25 25 25 26 26 27 27 27 28 28 28 28 29 29 29 29 29 29 29 30 31 31 32 31 31 31 31 30 30 29 28 27 26 26 26 27 27 28 29 30 31 31 32 32 32 32 33 33 34 35 36 36 37 37 38 38 38 37 37 37 37 39 41 40 39 39 39 38
18 18 19 19 20 21 22 22 23 24 24 25 25 25 25 25 25 26 26 27 27 27 27 27 27 28 28 28 29 29 29 29 29 29 30 30 30 30 31 31 31 31 31 30 30 29 28 28 27 26 26 26 27 28 28 29 30 31 32 32 32 32 32 32 32 32 33 34 35 36 37 38 39 38 37 37 37 38 38 39 40 39 38 38 38
19 19 19 20 21 22 22 23 23 24 25 25 25 25 25 25 25 26 26 27 27 27 27 27 28 28 29 29 29 29 29 29 29 30 30 30 30 30 30 31 31 31 31 30 29 29 28 27 27 26 26 26 27 28 29 30 31 31 32 32 32 32 32 32 31 31 32 32 33 35 36 36 37 38 37 37 38 38 38 38 39 39 38 37 38
19 19 20 21 21 22 22 23 23 24 25 25 25 25 25 25 26 26 26 26 27 27 27 28 28 29 29 29 29 29 29 29 29 29 30 30 30 30 30 31 31 31 30 30 29 29 28 27 27 27 27 27 28 29 30 30 31 31 32 32 33 33 33 32 31 30 30 31 32 33 34 35 35 37 37 37 38 38 38 38 38 38 37 37 38
20 20 21 22 22 22 23 23 23 24 25 25 25 25 25 25 26 26 26 27 27 27 27 28 28 28 28 29 29 29 29 29 29 29 30 30 30 31 31 30 30 30 29 28 28 28 28 28 27 27 27 27 29 29 30 31 30 31 32 32 33 34 34 33 31 30 29 30 31 32 33 34 34 35 36 37 37 37 38 39 38 37 37 37 38
21 21 22 22 22 23 23 23 24 24 25 24 25 25 25 25 26 26 26 27 27 27 28 28 28 28 28 29 29 29 29 29 29 30 30 31 31 31 31 30 29 29 28 28 28 27 27 27 27 27 27 28 29 29 30 30 30 31 32 33 33 34 34 32 31 30 30 30 31 32 33 34 34 34 35 36 37 37 38 39 38 38 37 37 37
22 22 22 22 23 23 23 24 24 24 24 24 25 25 25 26 26 26 27 27 27 28 28 29 29 29 29 29 29 29 30 30 30 31 31 31 31 30 30 29 29 28 27 27 27 27 26 26 26 26 26 28 29 29 29 29 29 31 32 33 34 35 33 32 30 30 30 30 31 32 33 34 35 35 35 35 36 37 38 38 38 38 38 37 37
22 22 22 22 22 23 23 24 24 24 24 25 25 25 25 26 26 26 27 27 28 28 29 29 30 30 29 29 30 30 31 31 31 31 31 31 31 30 29 29 28 27 27 26 26 26 26 25 25 26 26 27 28 28 28 28 29 31 32 33 34 35 33 31 29 28 29 29 31 32 33 34 35 35 35 35 35 36 37 38 38 38 37 38 38
21 22 22 22 22 23 23 23 24 24 24 24 24 25 25 26 27 27 28 28 28 29 29 29 30 30 29 29 30 30 31 31 31 31 31 31 31 30 29 28 27 26 25 25 25 25 25 25 25 26 26 26 27 27 28 29 30 31 32 32 34 35 34 31 28 27 28 29 31 33 34 35 36 36 35 35 36 36 37 37 38 38 38 38 38
21 21 22 22 22 22 23 23 24 24 23 24 25 25 26 27 27 28 28 28 28 29 29 30 30 30 29 29 30 30 31 31 30 31 31 31 30 29 27 27 26 25 25 25 25 24 24 24 25 25 25 26 26 27 28 29 30 32 32 32 34 36 34 30 28 27 28 30 31 33 35 36 37 37 36 36 36 37 37 37 37 37 36 36 37
21 21 21 21 22 23 23 24 23 23 23 24 25 26 27 27 28 29 30 29 29 29 30 30 30 30 30 30 30 31 31 31 30 31 31 30 29 28 27 26 25 24 24 24 24 24 24 24 24 24 25 25 26 27 28 29 30 32 32 32 34 36 34 29 27 27 29 30 32 34 36 37 38 38 37 37 36 37 37 37 37 36 35 34 35
21 21 21 22 22 23 24 23 23 23 24 25 26 26 27 28 29 30 30 30 29 29 30 30 30 30 30 31 31 31 31 31 30 31 30 29 28 27 26 24 23 23 23 23 23 24 24 24 24 24 25 25 26 26 27 28 30 31 31 31 34 35 32 28 27 28 28 29 31 33 35 37 39 39 39 39 39 38 37 38 38 37 35 34 34
21 21 22 22 23 24 24 24 23 24 25 26 26 27 28 29 29 30 30 29 29 30 30 31 31 31 31 32 32 31 31 31 30 30 29 28 28 26 25 23 23 23 22 22 23 23 23 23 23 24 24 25 25 26 27 28 30 30 30 30 33 34 31 28 28 28 27 27 28 29 32 35 37 38 39 40 41 40 39 38 38 37 36 34 34
22 22 23 23 23 24 24 24 24 25 25 26 27 28 29 29 29 30 30 29 30 30 31 32 32 31 32 33 33 32 31 30 29 28 27 27 27 26 24 23 22 22 22 23 23 23 23 23 23 23 24 25 25 26 27 28 29 29 28 29 31 32 30 29 28 27 25 23 23 24 27 30 32 34 36 39 40 41 41 39 37 37 36 34 34
23 24 24 24 24 24 24 24 25 25 26 27 28 29 29 29 30 30 30 30 30 30 31 32 32 33 33 33 32 31 29 29 27 26 26 27 26 24 22 21 21 21 22 22 23 23 23 23 23 23 24 24 25 26 27 27 27 27 27 28 29 30 30 28 26 25 24 21 19 19 21 25 28 30 32 36 38 40 41 40 39 37 36 34 34
24 24 24 24 24 25 25 25 25 26 27 28 28 29 30 30 31 31 30 29 30 31 32 32 33 33 32 31 30 29 29 29 28 27 27 27 25 22 21 20 20 21 21 22 22 22 22 23 23 23 23 24 25 25 26 26 26 26 26 27 28 29 29 27 25 23 22 19 17 16 16 19 24 27 29 32 35 38 40 40 40 38 37 35 34
23 24 24 25 25 25 25 25 26 27 28 28 28 29 30 30 31 31 29 29 31 32 32 33 32 31 30 30 29 29 30 30 29 28 27 26 23 21 20 20 20 20 21 21 22 22 22 22 22 22 23 24 24 24 24 25 26 26 26 27 28 28 27 26 24 21 20 17 14 13 13 14 19 24 27 29 32 35 37 38 39 38 37 36 34
23 24 25 25 26 25 25 26 27 28 29 28 29 29 29 30 30 30 29 31 33 33 32 32 32 30 29 29 29 29 30 30 29 28 27 24 22 21 20 20 20 20 20 21 21 21 21 21 22 23 23 24 23 23 23 24 25 26 26 26 27 26 25 25 23 20 18 16 13 11 10 11 13 18 23 27 30 32 34 35 37 38 37 36 36
24 25 25 26 26 26 27 27 29 29 29 28 29 29 30 30 30 30 31 32 33 32 31 31 31 30 29 29 29 30 30 29 28 27 25 23 21 20 20 20 20 20 20 20 21 20 20 21 22 23 23 22 22 22 22 23 24 26 26 25 25 25 24 23 22 20 17 15 12 10 9 9 10 13 18 23 28 30 31 32 34 36 37 37 37
25 26 27 28 28 28 27 28 28 28 28 29 30 30 31 30 30 31 31 32 32 31 31 31 30 29 29 29 30 30 30 28 25 23 21 20 20 20 20 20 20 19 19 19 20 20 20 21 22 22 21 21 21 21 21 22 23 25 25 25 24 24 23 22 21 19 17 15 12 10 8 7 8 10 14 19 24 27 29 30 31 33 34 35 36
27 28 29 30 29 28 28 28 29 29 30 31 31 31 30 30 30 31 31 31 31 31 30 30 29 29 29 29 29 29 28 25 22 20 19 20 20 20 20 19 19 19 18 18 19 19 20 21 21 20 19 19 20 20 20 21 22 23 23 23 23 22 22 21 20 18 16 15 12 10 7 6 5 6 10 14 19 22 26 28 29 31 32 33 34
28 29 29 29 29 29 30 30 30 30 30 30 30 30 30 30 31 31 30 30 30 30 30 30 29 29 29 28 28 27 25 22 20 20 20 20 19 19 18 18 18 18 17 18 18 19 19 19 18 18 18 18 18 19 19 19 20 21 21 22 22 21 21 20 19 18 16 15 12 10 7 4 3 3 6 9 13 17 22 26 28 29 30 31 32
28 28 28 29 30 30 30 29 29 29 29 29 30 30 30 30 30 30 29 30 30 29 30 30 29 28 28 27 26 25 22 21 20 20 20 19 18 17 17 17 17 17 17 17 18 18 17 17 16 16 17 17 18 18 18 18 18 19 20 20 20 21 20 20 19 18 17 15 13 11 8 5 2 2 4 6 8 11 16 21 25 27 28 29 30
28 28 29 30 30 29 28 29 29 29 29 29 30 29 29 30 30 29 29 30 29 29 29 29 28 27 26 25 24 23 21 20 20 19 18 17 16 16 16 16 16 16 17 17 17 16 15 15 15 16 17 17 17 17 17 17 17 18 18 19 19 20 20 19 18 18 17 16 14 12 9 6 4 2 1 3 5 7 10 14 18 22 24 25 26
29 30 30 30 30 29 29 29 29 29 29 30 29 29 29 29 29 29 29 28 28 28 27 27 26 25 24 23 22 21 20 19 19 18 17 16 15 15 16 16 16 16 17 16 15 14 14 14 14 15 15 15 16 16 16 16 16 17 18 18 18 19 20 19 18 17 17 16 14 12 10 7 5 3 2 1 2 4 6 8 12 15 18 20 22
30 31 31 30 30 30 30 31 30 30 30 30 30 29 29 28 28 28 27 27 27 26 25 24 23 22 21 21 20 20 19 18 17 17 16 15 15 15 15 16 16 16 16 15 14 14 14 13 13 14 14 14 14 15 15 15 16 16 17 17 18 19 20 19 18 17 16 15 14 12 10 8 6 4 2 1 1 1 3 5 8 10 12 15 17
30 30 31 31 31 31 31 31 30 30 30 29 29 28 28 27 27 26 26 26 25 25 23 22 21 20 20 19 19 18 18 17 17 16 16 15 14 15 15 15 15 15 15 14 13 13 13 12 12 12 13 13 13 14 14 14 15 15 16 16 17 18 19 18 18 18 16 14 13 12 11 9 8 6 4 1 0 1 2 4 5 7 9 10 12
30 31 31 31 31 31 30 30 29 29 29 28 28 27 27 26 25 25 25 25 24 23 21 20 20 19 19 18 18 17 16 16 16 16 15 15 15 15 15 15 14 14 14 13 12 12 12 12 11 12 12 12 13 13 14 14 15 15 16 16 16 17 17 17 17 17 17 15 13 12 11 10 9 8 6 4 2 0 2 3 4 4 6 8 10
30 31 31 30 30 29 29 28 28 28 27 27 27 27 26 25 24 24 24 23 23 22 21 20 19 19 19 18 17 16 15 15 16 16 16 16 15 15 15 14 14 14 13 12 12 11 12 12 11 12 12 12 13 13 13 14 14 15 15 15 15 16 16 16 16 16 16 16 14 12 11 10 10 9 7 6 4 2 1 1 2 3 4 6 8
30 29 29 29 28 28 28 27 27 26 25 25 25 24 24 24 24 23 23 22 22 21 20 20 19 19 18 18 17 16 15 16 16 17 17 16 16 15 14 13 14 14 13 12 11 11 12 12 12 12 12 12 12 12 13 13 14 14 15 15 15 15 15 15 15 15 15 15 14 14 12 10 10 9 7 6 5 4 3 1 1 2 3 5 5
28 28 28 27 26 26 26 26 25 24 24 23 23 23 23 23 23 23 22 22 21 20 20 19 19 18 18 18 17 16 16 16 16 17 17 17 16 15 14 14 14 13 13 12 12 12 12 12 12 12 11 11 12 12 12 13 13 14 14 14 15 15 15 15 15 15 14 13 13 13 12 11 10 9 8 7 6 5 4 3 2 2 2 4 5
27 27 27 26 26 26 25 24 23 22 22 22 22 22 22 22 22 22 21 21 20 19 19 18 17 17 17 17 17 17 17 17 17 17 17 17 15 15 14 14 13 13 13 12 12 12 12 12 12 12 12 12 12 12 12 13 13 14 14 14 14 14 14 14 14 14 14 13 12 12 12 11 10 9 9 7 7 6 5 4 3 2 2 2 4
26 26 26 26 26 26 25 23 22 21 21 21 22 21 21 21 21 21 20 20 19 18 17 17 16 16 16 17 17 17 17 17 17 16 16 16 15 14 14 13 13 13 13 13 13 13 12 12 13 13 13 13 13 13 13 13 13 13 14 14 14 15 15 14 14 14 13 13 12 12 11 11 10 9 9 8 7 6 5 5 4 3 2 1 2
26 26 26 26 25 24 23 22 21 20 21 21 21 20 20 20 20 20 20 19 17 17 16 16 15 16 16 17 17 17 17 16 16 16 15 15 15 14 13 13 13 13 13 14 14 14 13 13 13 13 13 13 14 13 14 14 14 14 14 14 14 15 15 15 14 14 14 13 12 12 11 10 10 9 9 8 8 7 6 5 4 3 2 2 2
26 26 26 25 23 22 21 21 20 20 21 21 20 20 20 20 19 19 19 18 17 16 16 16 16 16 17 17 17 17 17 16 16 16 15 15 15 14 14 13 14 14 14 14 15 14 14 14 14 14 14 14 14 14 14 14 14 14 14 14 14 14 14 14 14 14 14 13 13 12 11 11 10 9 9 8 8 7 7 6 5 4 3 2 2
27 26 25 23 22 21 21 20 20 20 20 20 20 20 20 19 19 19 18 18 17 17 17 17 17 17 18 18 18 18 18 17 16 16 16 15 15 15 15 14 14 14 15 15 14 14 14 14 14 14 15 15 15 15 15 15 15 15 14 14 14 14 14 14 14 14 14 13 13 12 12 11 10 10 9 8 7 7 7 6 6 5 4 3 3
26 25 24 22 22 21 20 20 20 20 20 21 20 20 20 20 19 18 18 18 18 17 17 17 17 18 19 20 19 19 18 18 17 17 17 16 16 15 15 15 15 15 15 15 14 14 14 14 15 15 15 15 15 16 16 15 15 15 15 14 14 14 14 14 14 14 14 13 13 13 12 12 11 10 10 9 8 7 7 6 6 6 6 5 5
25 24 23 22 22 21 20 20 20 21 21 21 21 20 20 19 18 18 18 18 18 19 18 18 18 19 19 19 19 18 18 17 17 17 17 16 16 16 16 16 16 16 15 15 15 15 15 15 15 15 15 15 15 15 15 15 15 15 14 14 14 14 14 14 14 14 14 14 13 13 13 12 12 11 11 10 9 8 8 7 6 6 6 6 5
25 24 23 22 21 21 20 20 21 21 21 21 21 20 20 19 18 18 19 19 19 19 19 18 18 18 18 18 18 18 18 17 17 17 17 16 16 16 16 15 15 15 15 15 15 15 15 15 15 15 15 15 15 15 15 14 14 14 14 13 13 13 13 13 13 13 14 14 13 13 13 13 13 12 12 11 10 10 9 8 8 7 7 6 6
25 23 22 21 20 20 20 20 21 21 20 20 20 20 19 19 19 19 20 20 20 19 19 19 18 18 18 18 18 19 18 18 17 17 17 17 16 16 16 15 14 14 15 15 15 15 14 15 15 15 14 14 14 14 13 13 13 13 13 13 13 13 13 13 12 13 13 13 13 12 12 13 13 12 12 12 11 11 10 9 9 9 8 7 7
23 21 20 19 19 19 19 20 20 20 20 20 20 19 19 20 20 20 20 20 20 20 20 20 20 19 19 19 19 19 18 18 17 17 17 16 16 16 15 15 14 14 14 14 14 14 13 13 13 13 13 13 13 13 13 12 12 12 13 13 12 13 13 12 12 12 13 13 13 12 12 12 12 12 12 12 12 11 11 10 10 10 9 8 8
21 20 20 19 19 20 20 20 20 20 21 20 20 20 20 21 20 19 19 19 19 19 20 20 20 20 19 19 19 18 18 18 17 17 16 16 16 16 15 15 14 14 14 14 13 13 13 13 12 12 13 13 12 12 12 12 12 12 13 13 13 13 13 13 13 12 13 13 13 13 12 12 12 12 12 12 12 11 11 11 11 11 10 10 9
20 20 20 20 20 21 21 21 21 21 21 21 21 21 21 21 21 19 19 19 20 20 20 21 21 19 18 18 19 18 18 17 17 17 16 16 15 15 16 15 15 14 13 13 13 13 13 13 13 12 13 13 13 12 12 12 13 13 13 13 14 14 14 14 14 13 13 14 14 13 13 13 13 13 12 12 12 12 12 11 11 11 11 11 11
20 21 22 22 22 22 22 22 22 21 21 21 22 21 21 21 21 20 20 20 20 20 20 21 20 19 18 18 18 18 17 17 17 16 16 16 15 15 16 16 15 14 14 14 13 13 13 13 13 12 12 13 13 12 12 13 13 14 14 14 15 15 15 15 15 15 15 15 15 14 14 14 14 14 13 13 13 12 12 12 12 12 12 11 11
21 22 22 22 22 22 22 22 22 21 21 21 21 21 20 21 21 20 20 20 19 19 19 20 19 19 18 18 18 17 17 16 16 16 16 15 15 15 15 15 14 14 14 14 14 13 13 12 13 12 12 13 13 13 13 14 14 14 14 15 15 15 15 15 16 16 16 15 15 15 15 14 14 14 14 14 13 13 12 12 12 12 12 12 12
22 22 22 22 22 22 22 22 21 21 21 21 21 21 21 21 20 19 19 19 18 17 17 19 19 18 18 18 17 16 16 15 15 15 15 15 15 15 15 15 14 14 14 14 13 13 13 13 13 13 12 13 13 13 14 14 15 15 15 15 15 15 15 15 15 16 16 16 16 16 15 15 15 15 14 14 14 14 13 13 13 13 13 12 12
Wind_Direction
273 279 284 290 294 298 303 306 309 311 313 314 315 315 315 314 314 313 313 312 313 312 312 312 312 311 311 309 308 307 307 307 307 307 307 307 307 308 307 307 307 306 306 305 305 305 304 303 302 301 300 300 300 300 300 299 297 295 292 288 284 279 276 272 269 266 263 261 258 255 253 252 250 248 247 246 243 239 238 239 240 238 238 239 240
271 277 283 287 291 295 300 304 306 309 311 312 313 313 313 312 312 312 312 312 312 312 311 311 311 311 311 310 309 308 307 307 307 307 307 307 307 307 307 306 306 305 305 304 304 304 303 303 302 300 300 300 300 300 301 301 300 298 295 292 287 282 277 274 270 267 264 261 258 255 253 250 249 248 247 246 244 240 238 238 239 238 238 239 240
269 275 281 285 289 293 298 301 304 306 309 311 311 312 312 312 311 311 312 313 313 312 312 311 310 311 311 310 310 309 308 307 307 306 305 305 306 306 306 306 305 304 304 303 303 303 302 302 302 300 300 300 300 301 302 303 303 302 299 295 290 285 280 276 272 268 265 261 257 255 253 250 248 247 246 245 244 242 238 237 238 237 238 238 239
267 272 277 283 288 293 297 301 302 304 307 309 310 311 312 313 314 313 313 313 313 313 312 311 310 310 310 310 310 309 308 307 307 306 305 304 304 305 305 305 304 303 303 302 302 302 302 302 301 300 300 300 300 301 303 303 304 304 303 299 294 289 283 279 275 270 265 261 257 254 252 249 247 246 245 244 243 242 238 236 236 237 237 238 238
266 271 276 281 286 291 296 299 301 303 307 308 309 310 312 313 314 314 314 313 313 312 311 311 311 310 310 310 310 309 308 307 307 307 306 305 304 304 304 304 303 302 302 302 302 302 301 301 300 299 299 300 301 302 303 304 306 306 305 303 299 293 286 281 278 273 266 261 257 254 251 248 246 244 244 243 242 240 237 235 235 236 237 237 237
269 272 276 280 285 290 294 298 300 302 305 307 308 310 311 312 312 313 314 313 312 311 311 311 311 311 311 311 310 309 309 308 307 306 306 305 305 305 305 304 303 303 302 301 301 301 300 300 300 298 299 300 301 303 305 306 307 308 308 306 303 298 291 284 280 275 268 261 257 253 250 247 244 243 243 242 241 239 236 235 235 235 235 236 235
270 271 276 282 287 291 294 296 299 302 305 306 308 309 310 311 312 313 313 312 311 311 311 311 311 311 312 311 311 310 310 309 307 305 305 306 305 304 304 304 304 303 302 301 300 299 298 299 298 297 298 300 302 304 306 308 308 309 309 308 305 302 296 288 281 276 270 262 256 252 249 247 244 242 242 241 239 237 235 234 234 234 235 234 233
268 270 276 284 289 291 294 297 300 303 305 306 307 308 309 310 311 312 312 311 311 311 311 311 311 311 312 311 311 311 311 310 308 306 306 306 305 305 305 304 304 303 302 301 300 298 298 298 297 296 297 299 302 304 306 308 309 310 310 309 307 305 300 291 283 277 271 263 257 252 248 246 243 241 241 240 238 236 235 234 233 233 233 232 231
267 270 277 284 289 291 294 298 300 302 304 304 305 306 308 309 310 311 311 311 311 311 310 311 311 311 311 312 312 312 311 310 309 307 307 307 306 306 306 305 305 304 303 302 300 299 298 297 296 295 295 298 301 304 305 307 309 310 310 310 308 306 303 294 284 278 272 263 257 252 247 244 242 240 239 238 237 235 234 233 233 231 231 231 230
267 272 277 282 288 291 294 297 300 302 303 303 304 305 308 309 309 309 309 310 311 311 311 312 311 311 312 312 312 312 311 310 309 308 307 307 307 306 306 305 305 305 304 302 301 299 298 297 296 295 295 297 301 303 305 307 309 310 311 310 309 308 305 297 285 277 272 263 256 251 247 243 241 240 239 237 236 235 233 232 232 230 230 231 230
268 273 277 281 286 290 293 296 299 300 301 302 303 306 307 308 308 308 308 309 310 311 312 312 312 311 311 312 312 311 310 309 309 308 307 307 307 306 306 305 304 305 304 303 302 301 299 298 297 296 296 298 301 304 306 307 309 311 312 312 311 310 306 298 286 276 271 263 256 251 246 243 242 241 239 237 235 234 232 231 231 230 230 231 230
269 272 276 282 286 289 293 296 298 299 300 301 303 305 306 307 307 307 307 309 310 311 312 313 312 311 311 311 311 310 310 309 308 308 307 306 305 306 306 304 303 304 303 304 304 303 301 300 299 299 299 300 303 305 307 308 310 313 314 313 313 312 308 300 288 276 270 264 256 250 246 243 242 241 238 236 235 233 232 231 230 230 230 230 230
268 272 277 282 286 289 292 295 297 299 299 300 302 304 305 305 306 307 308 310 310 311 312 313 312 312 311 311 310 310 309 309 309 308 307 306 305 305 305 304 303 303 302 303 305 304 303 302 301 301 301 302 304 306 308 310 311 313 315 314 314 314 311 303 291 277 270 265 257 250 245 242 241 240 238 236 234 232 231 230 230 230 230 230 230
268 272 278 283 286 289 292 293 296 298 298 299 301 303 303 304 305 306 308 310 310 311 311 312 312 312 311 311 310 310 310 310 310 308 307 307 306 305 304 303 301 301 301 303 305 305 305 305 304 304 304 305 306 307 308 311 312 314 315 314 315 316 312 305 294 280 271 266 259 251 245 241 240 240 238 236 233 231 230 229 229 229 230 231 231
269 273 279 284 287 289 291 292 294 296 297 299 301 302 303 304 305 306 307 308 309 310 311 311 312 311 310 310 310 310 311 312 311 309 308 308 306 305 303 302 300 299 300 302 304 306 307 307 306 305 306 307 308 308 309 312 313 314 315 315 317 318 314 305 295 283 274 268 261 253 247 241 240 239 238 235 233 230 229 229 228 229 231 232 232
272 276 281 285 287 289 291 292 293 294 296 298 300 302 303 303 304 306 306 305 306 308 309 310 311 310 310 310 309 309 310 311 311 311 310 309 307 305 303 301 299 298 299 302 303 306 308 308 307 307 308 310 309 309 311 313 314 315 316 317 320 321 316 307 297 288 279 272 264 255 248 243 240 238 237 235 233 230 229 228 227 227 229 231 231
274 279 283 287 289 290 291 291 292 293 295 298 299 301 303 303 304 306 305 304 305 307 309 309 309 309 309 309 309 308 309 310 311 311 311 310 309 306 303 301 298 297 299 300 302 305 307 307 308 309 310 311 312 313 313 315 316 317 317 319 323 324 319 311 304 295 285 277 269 259 249 243 239 237 236 235 232 230 229 228 227 226 227 229 230
274 280 284 287 289 289 289 289 290 292 295 297 299 300 302 303 304 306 305 304 304 307 308 309 309 308 308 309 308 307 307 309 310 311 310 310 309 306 303 300 298 297 298 300 302 304 306 307 308 310 311 313 314 316 316 317 319 319 319 322 326 327 323 317 311 304 293 283 275 263 250 242 237 235 234 233 230 228 228 227 226 225 227 228 229
275 281 284 287 288 288 288 289 290 293 295 297 298 300 302 303 304 306 305 304 304 306 307 308 308 307 307 308 307 306 306 308 310 310 310 311 310 306 301 299 297 297 298 299 301 303 305 307 309 309 311 313 315 317 318 319 320 320 320 324 328 330 328 324 318 314 304 291 280 267 253 242 236 233 232 231 229 226 225 225 225 224 225 226 228
278 282 285 286 286 286 287 289 291 293 296 297 298 300 301 302 303 304 304 303 304 306 307 307 307 307 307 308 308 306 306 308 309 309 310 312 311 306 301 298 298 298 298 299 301 302 304 308 310 311 312 314 316 318 319 321 322 321 322 327 330 332 331 329 325 322 316 302 285 271 255 242 236 233 231 229 227 225 223 223 223 224 224 225 227
282 285 286 286 286 286 287 289 292 295 296 298 298 299 301 301 302 302 302 303 305 306 307 307 307 308 309 310 310 309 308 308 307 307 310 311 309 305 301 300 300 299 299 300 301 302 304 308 311 313 315 316 317 319 320 322 324 324 324 327 331 333 333 332 330 328 324 313 292 275 260 243 235 232 230 228 226 223 222 222 222 223 224 225 226
286 287 286 286 287 286 287 289 293 296 297 298 298 300 301 302 302 301 301 303 306 307 307 307 308 309 310 309 308 308 308 307 304 305 308 308 305 302 300 300 301 301 300 301 301 303 305 308 311 313 315 317 318 319 321 324 326 327 327 327 330 333 334 335 333 330 329 323 304 283 269 252 238 231 228 226 223 221 221 221 222 223 224 225 226
289 289 287 287 286 286 286 289 292 295 297 297 298 300 301 302 303 301 300 303 306 306 306 307 307 307 308 308 308 309 309 306 303 304 306 304 302 300 299 299 300 301 300 300 301 303 306 308 311 314 315 317 318 319 322 325 328 330 329 329 332 335 336 338 337 334 333 331 318 296 280 265 247 234 226 223 220 219 219 220 221 222 224 225 227
290 291 290 289 287 286 287 289 291 294 296 296 298 300 301 302 301 299 299 303 305 305 305 306 306 307 307 307 309 310 309 306 304 303 302 300 301 302 300 299 300 300 300 300 301 303 305 308 311 314 315 316 318 320 322 325 330 333 333 333 334 336 338 340 342 340 338 337 329 312 293 273 256 243 230 221 218 218 219 220 221 222 224 226 227
291 291 292 290 288 287 289 292 294 295 296 297 299 301 301 301 300 299 300 303 304 304 304 305 306 306 306 307 309 311 309 307 304 302 300 299 301 304 303 301 300 300 300 301 301 302 305 307 310 313 314 316 318 320 323 327 331 335 337 338 339 340 341 345 348 347 342 341 338 327 309 284 262 248 232 221 218 219 220 221 222 222 224 226 227
292 292 292 289 287 287 292 295 296 296 296 298 299 300 300 299 300 300 301 302 303 303 304 305 305 305 306 308 310 310 309 307 304 301 300 300 301 303 305 304 302 301 301 301 301 302 304 307 310 313 315 317 320 322 324 327 332 337 341 343 345 345 345 349 355 356 350 346 346 343 331 305 274 248 229 222 222 222 222 222 222 222 223 224 225
294 294 291 288 288 291 294 296 295 295 297 299 299 299 299 298 299 301 301 302 303 303 304 304 305 305 307 309 309 309 308 305 303 301 300 300 300 302 304 305 305 305 303 303 303 304 306 308 312 314 316 319 321 324 325 327 332 338 343 346 349 350 349 352 358 2 359 355 355 355 351 335 297 258 233 225 225 226 225 223 222 222 223 224 225
294 293 291 290 291 293 295 295 295 295 297 298 298 298 298 298 299 301 302 302 303 303 304 305 305 305 307 308 308 308 306 305 303 302 301 300 300 302 305 306 307 307 306 306 306 306 307 310 313 315 318 320 323 326 327 328 332 337 343 348 351 353 354 356 359 2 2 1 2 4 3 2 353 292 247 231 229 229 226 222 221 222 223 224 225
292 291 292 292 293 293 294 295 295 295 296 297 298 298 299 299 299 300 300 301 302 303 303 304 304 305 306 307 306 306 306 305 303 301 300 298 299 302 305 306 307 307 307 308 308 309 310 311 312 315 318 321 325 327 328 330 332 337 343 349 353 355 356 358 0 1 2 3 6 10 9 11 18 13 277 219 225 232 227 221 220 221 222 223 224
293 293 293 292 292 292 292 293 294 294 295 296 296 296 298 299 299 299 299 300 302 303 303 303 303 304 304 305 306 306 305 304 302 300 298 297 297 300 302 304 305 306 307 308 308 310 312 313 313 316 319 322 327 329 331 332 334 338 343 349 354 356 357 359 0 1 2 4 7 11 13 17 22 22 38 109 182 220 219 214 215 216 218 220 222
293 293 293 293 293 292 291 292 293 293 294 294 294 294 296 298 299 299 299 300 302 303 304 304 304 304 304 304 305 305 304 302 300 300 298 296 297 299 301 303 306 306 307 308 308 311 314 315 316 318 320 324 329 332 334 335 336 339 342 348 354 357 358 360 0 1 3 4 6 10 13 18 24 25 25 72 111 160 185 193 200 205 210 215 218
292 292 293 293 293 292 291 291 292 292 293 293 293 293 293 294 297 299 300 301 302 303 303 304 304 304 304 303 303 303 303 301 300 299 298 296 296 297 299 303 306 307 307 308 310 312 315 316 318 320 322 325 330 333 336 337 338 339 341 345 351 356 359 1 1 2 4 4 4 9 13 16 22 28 33 42 133 173 170 177 185 192 201 209 212
293 293 293 293 292 291 290 290 290 291 292 292 292 292 292 292 294 296 298 300 301 301 301 302 302 303 303 301 301 301 300 298 298 298 297 295 295 295 296 300 303 306 308 309 309 312 315 317 318 320 322 326 329 331 334 336 336 337 339 342 346 351 356 359 1 3 7 8 5 7 12 16 20 26 33 36 38 140 183 186 189 194 202 207 210
294 294 294 294 292 291 290 289 289 290 291 291 290 290 291 292 293 293 295 297 297 297 298 299 299 300 300 300 300 300 299 299 300 300 298 295 294 294 294 295 297 302 306 307 306 310 313 314 315 317 319 322 325 326 329 332 333 334 336 339 341 345 350 355 358 1 5 9 9 9 11 14 17 21 28 34 34 32 36 198 204 210 213 211 211
294 295 294 294 293 291 290 290 290 290 290 290 290 290 292 293 294 294 294 294 293 293 293 294 295 296 296 297 298 300 301 301 302 302 301 298 295 293 291 291 294 297 301 302 303 306 309 310 313 314 315 318 320 322 325 328 331 333 334 336 338 341 345 349 354 357 0 4 8 10 12 12 12 13 18 24 26 21 11 351 268 234 225 217 213
295 295 295 294 292 292 291 291 290 290 289 289 290 292 293 294 294 294 294 293 292 291 290 292 292 293 293 293 295 297 300 301 302 304 305 303 299 293 290 291 293 294 295 298 300 302 304 307 310 312 312 313 316 319 321 324 327 330 332 334 336 338 341 344 348 351 355 358 1 5 9 11 10 9 6 5 6 8 7 357 336 299 251 229 223
295 296 295 294 292 291 291 291 289 287 287 289 291 293 294 295 294 293 293 293 292 290 289 290 290 289 290 292 294 295 297 299 301 303 305 304 301 296 291 289 289 290 290 292 294 297 300 304 306 309 310 311 312 314 317 319 321 325 329 331 333 335 337 340 343 346 349 352 355 358 3 7 9 9 7 1 356 356 357 353 340 324 297 245 228
296 295 295 294 292 290 289 288 286 285 287 290 291 292 294 294 294 293 293 292 292 290 289 289 289 288 288 290 293 295 296 296 298 300 300 300 300 297 292 287 285 285 286 288 289 293 297 300 303 305 308 310 312 313 314 315 316 319 322 325 327 329 331 334 338 341 343 347 349 351 356 360 3 5 6 6 3 358 353 348 339 329 321 286 238
295 294 294 294 292 289 287 285 284 284 287 290 291 291 292 292 292 292 292 290 289 288 288 288 289 289 289 290 292 295 295 295 296 298 298 298 297 295 291 288 285 284 284 286 288 291 293 296 299 302 304 307 310 312 313 313 314 315 316 317 319 322 325 327 330 333 335 338 341 344 348 351 354 356 358 2 5 4 1 357 347 334 326 316 273
293 293 293 293 290 287 285 283 282 284 287 289 289 289 290 290 290 290 290 288 287 287 287 287 289 290 290 291 292 293 294 295 295 296 297 297 295 292 289 288 287 285 284 286 287 288 289 292 294 297 300 303 306 308 310 312 312 312 312 313 314 316 317 319 322 324 327 328 331 335 339 342 344 346 348 352 356 358 359 0 357 348 337 331 316
293 291 291 290 287 286 283 282 283 285 286 286 287 288 288 287 288 288 288 287 286 286 286 287 287 289 291 292 292 291 292 293 294 294 295 295 294 290 287 286 287 286 285 285 286 286 287 288 291 294 297 300 302 304 306 308 310 310 310 312 313 313 314 314 315 317 319 321 324 328 331 333 334 335 337 339 343 346 348 349 349 346 342 338 333
293 290 288 287 285 284 283 282 283 284 284 284 286 286 285 285 285 286 286 284 283 284 285 285 286 288 291 293 292 290 290 292 291 291 292 292 291 289 286 284 284 284 283 283 284 285 286 287 288 291 294 296 298 301 303 305 307 308 309 310 312 312 313 313 313 314 314 315 318 322 325 326 326 326 325 326 329 332 334 335 334 333 331 330 330
291 289 287 285 283 281 280 279 280 281 282 284 285 285 284 284 284 284 284 284 283 283 284 284 285 288 290 290 289 288 289 290 290 290 289 289 289 288 287 285 284 283 282 282 283 284 285 286 288 289 292 294 296 298 301 303 305 306 307 309 310 311 312 312 312 313 312 312 313 316 320 322 322 320 319 318 318 319 321 321 321 320 318 317 318
290 288 286 282 280 278 278 278 279 281 282 283 284 283 282 281 282 282 284 285 285 285 285 284 285 287 287 287 287 287 287 288 289 288 287 286 286 286 287 287 286 285 284 284 284 284 284 285 286 288 290 292 295 297 299 302 304 305 306 308 309 311 312 313 312 313 313 312 311 313 316 319 318 317 316 315 313 312 312 313 312 310 307 303 301
288 286 283 280 278 277 277 278 279 281 282 282 282 281 280 281 282 283 284 284 285 285 285 285 286 286 286 286 286 285 285 287 287 286 285 285 284 283 285 285 284 285 285 285 285 285 284 283 284 286 287 289 292 295 297 300 303 304 306 308 310 311 313 313 312 313 314 313 312 313 315 316 316 315 314 314 312 310 308 308 308 307 303 298 293
285 282 281 279 277 276 277 278 279 280 281 281 281 281 281 281 282 282 282 283 285 284 283 283 284 286 286 285 284 282 283 284 285 283 283 283 282 282 283 284 283 284 285 284 283 284 284 282 283 285 286 287 289 292 295 299 302 304 306 308 309 310 311 311 311 312 313 313 313 313 315 316 315 314 313 312 311 309 307 306 306 305 303 299 294
280 279 278 277 276 276 277 278 280 282 281 281 281 283 283 282 281 280 280 282 284 284 283 281 279 281 282 282 281 281 281 283 282 280 279 279 278 279 281 282 282 283 284 283 282 283 283 283 283 284 284 285 287 289 292 296 298 300 303 305 305 306 307 307 307 308 310 310 310 311 313 314 314 314 313 311 310 309 307 305 304 302 300 298 295
276 277 277 277 278 279 279 279 281 282 282 281 281 282 283 282 281 281 282 283 284 283 282 279 277 278 281 282 281 281 282 281 280 279 278 277 277 277 278 279 279 279 280 281 281 280 281 282 283 283 284 285 286 287 290 293 296 298 300 301 301 302 303 303 302 303 305 305 305 305 307 309 310 310 310 309 308 308 307 306 304 302 299 296 294
277 279 280 278 279 279 279 279 280 280 280 280 280 279 279 280 279 278 279 282 282 280 279 279 278 279 282 282 281 280 279 278 278 278 278 277 276 276 277 277 276 275 276 278 279 279 280 281 282 282 283 285 286 288 290 293 295 296 297 298 298 299 301 301 299 299 300 301 300 299 299 301 303 304 305 305 304 304 304 304 304 302 299 297 295
278 280 279 278 277 277 276 276 276 276 278 279 278 276 276 278 278 276 276 278 278 277 277 278 278 278 279 279 278 278 277 276 277 277 277 276 276 276 276 276 274 273 274 275 276 277 278 279 281 283 284 284 285 288 291 293 294 294 295 296 297 297 298 297 297 297 298 297 296 295 295 296 296 297 298 299 299 298 299 300 301 300 299 298 296
279 279 278 277 278 279 278 277 276 277 278 279 279 278 277 277 278 278 277 277 277 277 277 276 276 277 277 276 276 276 276 276 277 277 276 275 274 274 275 275 274 273 273 274 275 276 277 278 280 282 283 283 284 286 290 292 292 291 293 296 297 297 297 296 295 295 297 297 295 293 293 293 293 293 294 294 294 294 294 296 296 295 295 294 294